| time (UTC) | temp F | wind direction | speed MPH | gust MPH | rain 1hr in | rain 24hr in | rain mn in | humidity % | barometer mb |
| 20260505230101 | 64 | 44 | 3.0 | 10.0 | 0.00 | 0.00 | 0.00 | 68 | 1007.7 |
| 20260505224943 | 64 | 340 | 2.0 | 6.0 | 0.00 | 0.00 | 0.00 | 68 | 1007.7 |
| 20260505224445 | 65 | 115 | 2.0 | 5.0 | 0.00 | 0.00 | 0.00 | 67 | 1007.8 |
| 20260505223942 | 65 | 115 | 2.0 | 5.0 | 0.00 | 0.00 | 0.00 | 67 | 1007.8 |
| 20260505223441 | 66 | 118 | 2.0 | 8.0 | 0.00 | 0.00 | 0.00 | 66 | 1007.9 |
| 20260505222942 | 66 | 105 | 2.0 | 10.0 | 0.00 | 0.00 | 0.00 | 64 | 1008.0 |
| 20260505222441 | 67 | 214 | 2.0 | 10.0 | 0.00 | 0.00 | 0.00 | 63 | 1007.7 |
| 20260505221945 | 68 | 9 | 2.0 | 6.0 | 0.00 | 0.00 | 0.00 | 61 | 1007.7 |
| 20260505221940 | 67 | 12 | 2.0 | 9.0 | 0.00 | 0.00 | 0.00 | 62 | 1007.7 |
| 20260505220940 | 68 | 40 | 2.0 | 6.0 | 0.00 | 0.00 | 0.00 | 61 | 1007.7 |
| 20260505220439 | 68 | 57 | 3.0 | 9.0 | 0.00 | 0.00 | 0.00 | 60 | 1007.5 |
| 20260505215939 | 69 | 175 | 3.0 | 9.0 | 0.00 | 0.00 | 0.00 | 60 | 1007.4 |
| 20260505215445 | 70 | 219 | 2.0 | 7.0 | 0.00 | 0.00 | 0.00 | 58 | 1007.3 |
| 20260505215438 | 69 | 49 | 3.0 | 8.0 | 0.00 | 0.00 | 0.00 | 59 | 1007.4 |
| 20260505215056 | 70 | 39 | 2.0 | 8.0 | 0.00 | 0.00 | 0.00 | 59 | 1007.2 |
| 20260505214555 | 70 | 165 | 2.0 | 8.0 | 0.00 | 0.00 | 0.00 | 58 | 1007.3 |
| 20260505213437 | 70 | 336 | 3.0 | 10.0 | 0.00 | 0.00 | 0.00 | 59 | 1007.2 |
| 20260505212938 | 70 | 78 | 3.0 | 10.0 | 0.00 | 0.00 | 0.00 | 58 | 1007.4 |
| 20260505212437 | 70 | 80 | 3.0 | 11.0 | 0.00 | 0.00 | 0.00 | 59 | 1007.3 |
| 20260505211937 | 70 | 311 | 3.0 | 11.0 | 0.00 | 0.00 | 0.00 | 59 | 1007.3 |
| 20260505211442 | 70 | 145 | 2.0 | 6.0 | 0.00 | 0.00 | 0.00 | 59 | 1007.3 |
| 20260505211436 | 70 | 40 | 3.0 | 12.0 | 0.00 | 0.00 | 0.00 | 60 | 1007.4 |
| 20260505211052 | 70 | 196 | 3.0 | 17.0 | 0.00 | 0.00 | 0.00 | 59 | 1007.2 |
| 20260505210556 | 70 | 222 | 3.0 | 17.0 | 0.00 | 0.00 | 0.00 | 59 | 1007.2 |
| 20260505205435 | 70 | 205 | 3.0 | 12.0 | 0.00 | 0.00 | 0.00 | 59 | 1007.2 |
| 20260505204936 | 71 | 145 | 3.0 | 11.0 | 0.00 | 0.00 | 0.00 | 58 | 1007.3 |
| 20260505204441 | 71 | 231 | 3.0 | 13.0 | 0.00 | 0.00 | 0.00 | 56 | 1007.4 |
| 20260505204436 | 71 | 342 | 3.0 | 13.0 | 0.00 | 0.00 | 0.00 | 58 | 1007.4 |
| 20260505203435 | 72 | 168 | 3.0 | 13.0 | 0.00 | 0.00 | 0.00 | 55 | 1007.3 |
| 20260505202936 | 72 | 16 | 3.0 | 9.0 | 0.00 | 0.00 | 0.00 | 56 | 1007.3 |
| 20260505202436 | 73 | 203 | 3.0 | 9.0 | 0.00 | 0.00 | 0.00 | 56 | 1007.5 |
| 20260505201933 | 73 | 184 | 2.0 | 6.0 | 0.00 | 0.00 | 0.00 | 54 | 1007.4 |
| 20260505201433 | 73 | 63 | 2.0 | 6.0 | 0.00 | 0.00 | 0.00 | 55 | 1007.3 |
| 20260505200932 | 73 | 49 | 2.0 | 8.0 | 0.00 | 0.00 | 0.00 | 54 | 1007.3 |
| 20260505200434 | 73 | 139 | 2.0 | 10.0 | 0.00 | 0.00 | 0.00 | 55 | 1007.2 |
| 20260505195934 | 73 | 123 | 3.0 | 10.0 | 0.00 | 0.00 | 0.00 | 55 | 1007.4 |
| 20260505195433 | 73 | 140 | 3.0 | 10.0 | 0.00 | 0.00 | 0.00 | 55 | 1007.4 |
| 20260505194934 | 73 | 166 | 3.0 | 10.0 | 0.00 | 0.00 | 0.00 | 54 | 1007.4 |
| 20260505194434 | 74 | 160 | 3.0 | 6.0 | 0.00 | 0.00 | 0.00 | 51 | 1007.5 |
| 20260505193934 | 75 | 177 | 3.0 | 7.0 | 0.00 | 0.00 | 0.00 | 53 | 1007.5 |
| 20260505193430 | 75 | 129 | 3.0 | 10.0 | 0.00 | 0.00 | 0.00 | 52 | 1007.5 |
| 20260505192932 | 75 | 162 | 3.0 | 10.0 | 0.00 | 0.00 | 0.00 | 51 | 1007.5 |
| 20260505192431 | 75 | 156 | 3.0 | 10.0 | 0.00 | 0.00 | 0.00 | 50 | 1007.4 |
| 20260505191932 | 75 | 131 | 3.0 | 10.0 | 0.00 | 0.00 | 0.00 | 50 | 1007.3 |
| 20260505191434 | 76 | 36 | 3.0 | 9.0 | 0.00 | 0.00 | 0.00 | 49 | 1007.3 |
| 20260505191429 | 76 | 51 | 3.0 | 10.0 | 0.00 | 0.00 | 0.00 | 52 | 1007.2 |
| 20260505190430 | 77 | 9 | 3.0 | 9.0 | 0.00 | 0.00 | 0.00 | 49 | 1007.4 |
| 20260505185927 | 77 | 178 | 3.0 | 7.0 | 0.00 | 0.00 | 0.00 | 50 | 1007.3 |
| 20260505185426 | 78 | 73 | 3.0 | 8.0 | 0.00 | 0.00 | 0.00 | 48 | 1007.4 |
| 20260505184928 | 78 | 89 | 2.0 | 8.0 | 0.00 | 0.00 | 0.00 | 47 | 1007.4 |
| 20260505184426 | 79 | 136 | 2.0 | 5.0 | 0.00 | 0.00 | 0.00 | 48 | 1007.5 |
| 20260505183927 | 79 | 178 | 2.0 | 9.0 | 0.00 | 0.00 | 0.00 | 48 | 1007.4 |
| 20260505183423 | 78 | 118 | 2.0 | 9.0 | 0.00 | 0.00 | 0.00 | 48 | 1007.5 |
| 20260505182923 | 78 | 313 | 2.0 | 9.0 | 0.00 | 0.00 | 0.00 | 47 | 1007.7 |
| 20260505182424 | 78 | 281 | 3.0 | 9.0 | 0.00 | 0.00 | 0.00 | 50 | 1007.7 |
| 20260505181923 | 78 | 334 | 3.0 | 9.0 | 0.00 | 0.00 | 0.00 | 49 | 1007.8 |
| 20260505181422 | 78 | 177 | 3.0 | 12.0 | 0.00 | 0.00 | 0.00 | 48 | 1007.8 |
| 20260505180922 | 78 | 192 | 3.0 | 12.0 | 0.00 | 0.00 | 0.00 | 49 | 1007.9 |
| 20260505180420 | 77 | 188 | 3.0 | 10.0 | 0.00 | 0.00 | 0.00 | 50 | 1008.1 |
| 20260505175921 | 77 | 63 | 3.0 | 10.0 | 0.00 | 0.00 | 0.00 | 49 | 1008.1 |
| 20260505175422 | 77 | 98 | 3.0 | 9.0 | 0.00 | 0.00 | 0.00 | 51 | 1008.3 |
| 20260505174922 | 77 | 119 | 3.0 | 9.0 | 0.00 | 0.00 | 0.00 | 49 | 1008.3 |
| 20260505174420 | 77 | 193 | 3.0 | 11.0 | 0.00 | 0.00 | 0.00 | 49 | 1008.3 |
| 20260505173922 | 77 | 114 | 3.0 | 11.0 | 0.00 | 0.00 | 0.00 | 49 | 1008.4 |
| 20260505173426 | 77 | 86 | 3.0 | 9.0 | 0.00 | 0.00 | 0.00 | 50 | 1008.4 |
| 20260505173420 | 77 | 30 | 2.0 | 10.0 | 0.00 | 0.00 | 0.00 | 49 | 1008.4 |
| 20260505173040 | 77 | 355 | 2.0 | 9.0 | 0.00 | 0.00 | 0.00 | 49 | 1008.5 |
| 20260505171922 | 77 | 76 | 2.0 | 8.0 | 0.00 | 0.00 | 0.00 | 51 | 1008.6 |
| 20260505171422 | 78 | 112 | 2.0 | 8.0 | 0.00 | 0.00 | 0.00 | 51 | 1008.4 |
| 20260505170921 | 78 | 61 | 2.0 | 9.0 | 0.00 | 0.00 | 0.00 | 50 | 1008.4 |
| 20260505170422 | 77 | 53 | 2.0 | 9.0 | 0.00 | 0.00 | 0.00 | 55 | 1008.4 |
| 20260505165921 | 77 | 294 | 2.0 | 10.0 | 0.00 | 0.00 | 0.00 | 52 | 1008.5 |
| 20260505165423 | 78 | 175 | 2.0 | 10.0 | 0.00 | 0.00 | 0.00 | 50 | 1008.7 |
| 20260505164922 | 79 | 355 | 2.0 | 6.0 | 0.00 | 0.00 | 0.00 | 50 | 1008.7 |
| 20260505164422 | 77 | 148 | 3.0 | 8.0 | 0.00 | 0.00 | 0.00 | 54 | 1008.7 |
| 20260505163923 | 78 | 113 | 2.0 | 8.0 | 0.00 | 0.00 | 0.00 | 50 | 1008.7 |
| 20260505163418 | 78 | 217 | 2.0 | 7.0 | 0.00 | 0.00 | 0.00 | 49 | 1008.8 |
| 20260505162920 | 78 | 123 | 2.0 | 9.0 | 0.00 | 0.00 | 0.00 | 49 | 1008.8 |
| 20260505162418 | 78 | 149 | 2.0 | 9.0 | 0.00 | 0.00 | 0.00 | 49 | 1008.8 |
| 20260505161919 | 78 | 191 | 2.0 | 8.0 | 0.00 | 0.00 | 0.00 | 50 | 1008.8 |
| 20260505161417 | 78 | 123 | 2.0 | 8.0 | 0.00 | 0.00 | 0.00 | 50 | 1008.9 |
| 20260505160914 | 78 | 67 | 2.0 | 7.0 | 0.00 | 0.00 | 0.00 | 51 | 1008.9 |
| 20260505160412 | 77 | 107 | 2.0 | 7.0 | 0.00 | 0.00 | 0.00 | 53 | 1009.0 |
| 20260505152910 | 74 | 133 | 2.0 | 5.0 | 0.00 | 0.00 | 0.00 | 57 | 1009.0 |
| 20260505152410 | 74 | 190 | 2.0 | 5.0 | 0.00 | 0.00 | 0.00 | 56 | 1009.0 |
| 20260505151911 | 74 | 118 | 2.0 | 5.0 | 0.00 | 0.00 | 0.00 | 57 | 1009.0 |
| 20260505151410 | 74 | 215 | 2.0 | 5.0 | 0.00 | 0.00 | 0.00 | 56 | 1009.1 |
| 20260505150910 | 75 | 214 | 2.0 | 5.0 | 0.00 | 0.00 | 0.00 | 56 | 1009.2 |
| 20260505150410 | 74 | 77 | 2.0 | 5.0 | 0.00 | 0.00 | 0.00 | 57 | 1009.3 |
| 20260505124903 | 64 | 126 | 2.0 | 5.0 | 0.00 | 0.00 | 0.00 | 72 | 1009.8 |
| 20260505124404 | 63 | 42 | 2.0 | 7.0 | 0.00 | 0.00 | 0.00 | 73 | 1009.9 |
| 20260505123902 | 63 | 295 | 2.0 | 7.0 | 0.00 | 0.00 | 0.00 | 73 | 1010.0 |
| 20260505123402 | 63 | 170 | 2.0 | 5.0 | 0.00 | 0.00 | 0.00 | 74 | 1009.9 |
| 20260505122904 | 63 | 170 | 2.0 | 11.0 | 0.00 | 0.00 | 0.00 | 74 | 1009.8 |
| 20260505122403 | 62 | 63 | 2.0 | 11.0 | 0.00 | 0.00 | 0.00 | 75 | 1009.7 |
| 20260505121901 | 62 | 115 | 1.0 | 7.0 | 0.00 | 0.00 | 0.00 | 76 | 1009.6 |
| 20260505121401 | 61 | 173 | 2.0 | 7.0 | 0.00 | 0.00 | 0.00 | 77 | 1009.6 |
| 20260505120902 | 60 | 225 | 2.0 | 6.0 | 0.00 | 0.00 | 0.00 | 79 | 1009.7 |
| 20260505120400 | 60 | 355 | 2.0 | 8.0 | 0.00 | 0.00 | 0.00 | 80 | 1009.7 |
| 20260505115859 | 59 | 0 | 1.0 | 8.0 | 0.00 | 0.00 | 0.00 | 82 | 1009.9 |
| 20260505115400 | 58 | 0 | 1.0 | 4.0 | 0.00 | 0.00 | 0.00 | 83 | 1009.7 |
| 20260505114858 | 58 | 0 | 1.0 | 5.0 | 0.00 | 0.00 | 0.00 | 83 | 1009.7 |
| 20260505114359 | 57 | 0 | 1.0 | 5.0 | 0.00 | 0.00 | 0.00 | 85 | 1009.7 |
| 20260505113858 | 57 | 0 | 1.0 | 3.0 | 0.00 | 0.00 | 0.00 | 87 | 1009.7 |
| 20260505113356 | 56 | 0 | 1.0 | 4.0 | 0.00 | 0.00 | 0.00 | 88 | 1009.8 |
| 20260505112857 | 56 | 0 | 1.0 | 4.0 | 0.00 | 0.00 | 0.00 | 90 | 1009.8 |
| 20260505112355 | 55 | 0 | 1.0 | 3.0 | 0.00 | 0.00 | 0.00 | 91 | 1009.9 |
| 20260505111856 | 54 | 0 | 1.0 | 3.0 | 0.00 | 0.00 | 0.00 | 92 | 1009.8 |
| 20260505111355 | 54 | 0 | 1.0 | 3.0 | 0.00 | 0.00 | 0.00 | 93 | 1009.7 |
| 20260505110902 | 53 | 0 | 1.0 | 4.0 | 0.00 | 0.00 | 0.00 | 94 | 1009.7 |
| 20260505110855 | 53 | 0 | 1.0 | 4.0 | 0.00 | 0.00 | 0.00 | 93 | 1009.6 |
| 20260505101856 | 48 | 53 | 0.0 | 1.0 | 0.00 | 0.00 | 0.00 | 94 | 1009.6 |
| 20260505101356 | 48 | 53 | 0.0 | 1.0 | 0.00 | 0.00 | 0.00 | 94 | 1009.6 |
| 20260505100901 | 47 | 53 | 0.0 | 1.0 | 0.00 | 0.00 | 0.00 | 93 | 1009.6 |
| 20260505100856 | 47 | 53 | 0.0 | 1.0 | 0.00 | 0.00 | 0.00 | 93 | 1009.7 |
| 20260505100511 | 47 | 53 | 0.0 | 1.0 | 0.00 | 0.00 | 0.00 | 94 | 1009.6 |
| 20260505095400 | 47 | 54 | 0.0 | 1.0 | 0.00 | 0.00 | 0.00 | 93 | 1009.6 |
| 20260505095355 | 47 | 54 | 0.0 | 1.0 | 0.00 | 0.00 | 0.00 | 93 | 1009.6 |
| 20260505094353 | 47 | 54 | 0.0 | 1.0 | 0.00 | 0.00 | 0.00 | 93 | 1009.7 |
| 20260505093857 | 47 | 54 | 0.0 | 0.0 | 0.00 | 0.00 | 0.00 | 93 | 1009.8 |
| 20260505093852 | 47 | 54 | 0.0 | 0.0 | 0.00 | 0.00 | 0.00 | 93 | 1009.7 |
| 20260505093511 | 47 | 54 | 0.0 | 0.0 | 0.00 | 0.00 | 0.00 | 93 | 1009.7 |
| 20260505092352 | 47 | 54 | 0.0 | 0.0 | 0.00 | 0.00 | 0.00 | 92 | 1009.9 |
| 20260505091853 | 47 | 54 | 0.0 | 1.0 | 0.00 | 0.00 | 0.00 | 92 | 1009.9 |
| 20260505091354 | 47 | 54 | 0.0 | 1.0 | 0.00 | 0.00 | 0.00 | 93 | 1009.9 |
| 20260505090852 | 47 | 54 | 0.0 | 1.0 | 0.00 | 0.00 | 0.00 | 93 | 1009.9 |
| 20260505090352 | 47 | 54 | 0.0 | 1.0 | 0.00 | 0.00 | 0.00 | 92 | 1009.9 |
| 20260505085853 | 47 | 54 | 0.0 | 0.0 | 0.00 | 0.00 | 0.00 | 92 | 1009.8 |
| 20260505085352 | 47 | 54 | 0.0 | 0.0 | 0.00 | 0.00 | 0.00 | 92 | 1009.9 |
| 20260505084856 | 48 | 54 | 0.0 | 1.0 | 0.00 | 0.00 | 0.00 | 92 | 1009.9 |
| 20260505084851 | 48 | 54 | 0.0 | 1.0 | 0.00 | 0.00 | 0.00 | 92 | 1010.0 |
| 20260505083850 | 48 | 54 | 0.0 | 1.0 | 0.00 | 0.00 | 0.00 | 92 | 1009.9 |
| 20260505083350 | 48 | 54 | 0.0 | 1.0 | 0.00 | 0.00 | 0.00 | 92 | 1009.9 |
| 20260505082849 | 48 | 54 | 0.0 | 1.0 | 0.00 | 0.00 | 0.00 | 92 | 1009.8 |
| 20260505082351 | 48 | 54 | 0.0 | 1.0 | 0.00 | 0.00 | 0.00 | 92 | 1009.9 |
| 20260505081855 | 48 | 54 | 0.0 | 1.0 | 0.00 | 0.00 | 0.00 | 92 | 1009.7 |
| 20260505081850 | 48 | 54 | 0.0 | 1.0 | 0.00 | 0.00 | 0.00 | 92 | 1009.7 |
| 20260505080849 | 48 | 54 | 0.0 | 1.0 | 0.00 | 0.00 | 0.00 | 92 | 1009.8 |
| 20260505080346 | 48 | 54 | 0.0 | 1.0 | 0.00 | 0.00 | 0.00 | 92 | 1009.8 |
| 20260505075846 | 48 | 54 | 0.0 | 1.0 | 0.00 | 0.00 | 0.00 | 91 | 1009.9 |
| 20260505075346 | 48 | 54 | 0.0 | 1.0 | 0.00 | 0.00 | 0.00 | 91 | 1009.9 |
| 20260505074845 | 48 | 54 | 0.0 | 1.0 | 0.00 | 0.00 | 0.00 | 91 | 1010.0 |
| 20260505074347 | 48 | 54 | 0.0 | 1.0 | 0.00 | 0.00 | 0.00 | 91 | 1010.1 |
| 20260505073844 | 48 | 54 | 0.0 | 1.0 | 0.00 | 0.00 | 0.00 | 91 | 1010.0 |
| 20260505073345 | 48 | 54 | 0.0 | 2.0 | 0.00 | 0.00 | 0.00 | 91 | 1009.9 |
| 20260505072847 | 48 | 54 | 0.0 | 2.0 | 0.00 | 0.00 | 0.00 | 91 | 1009.9 |
| 20260505072344 | 49 | 54 | 0.0 | 1.0 | 0.00 | 0.00 | 0.00 | 91 | 1010.0 |
| 20260505071845 | 49 | 54 | 0.0 | 1.0 | 0.00 | 0.00 | 0.00 | 91 | 1009.9 |
| 20260505071346 | 49 | 54 | 0.0 | 1.0 | 0.00 | 0.00 | 0.00 | 91 | 1009.9 |
| 20260505070850 | 49 | 54 | 0.0 | 2.0 | 0.00 | 0.00 | 0.00 | 90 | 1009.9 |
| 20260505070843 | 49 | 54 | 0.0 | 1.0 | 0.00 | 0.00 | 0.00 | 90 | 1010.0 |
| 20260505070502 | 49 | 54 | 0.0 | 2.0 | 0.00 | 0.00 | 0.00 | 90 | 1009.9 |
| 20260505070001 | 49 | 54 | 0.0 | 1.0 | 0.00 | 0.00 | 0.00 | 90 | 1009.9 |
| 20260505064843 | 49 | 54 | 0.0 | 3.0 | 0.00 | 0.00 | 0.00 | 90 | 1010.0 |
| 20260505064344 | 49 | 53 | 1.0 | 3.0 | 0.00 | 0.00 | 0.00 | 90 | 1010.1 |
| 20260505063843 | 49 | 92 | 1.0 | 2.0 | 0.00 | 0.00 | 0.00 | 89 | 1010.0 |
| 20260505063344 | 49 | 92 | 0.0 | 2.0 | 0.00 | 0.00 | 0.00 | 89 | 1010.0 |
| 20260505062844 | 49 | 92 | 0.0 | 2.0 | 0.00 | 0.00 | 0.00 | 89 | 1010.1 |
| 20260505062348 | 49 | 92 | 0.0 | 3.0 | 0.00 | 0.00 | 0.00 | 89 | 1010.1 |
| 20260505062343 | 49 | 92 | 0.0 | 3.0 | 0.00 | 0.00 | 0.00 | 89 | 1010.0 |
| 20260505061342 | 49 | 339 | 0.0 | 3.0 | 0.00 | 0.00 | 0.00 | 88 | 1010.0 |
| 20260505060841 | 50 | 90 | 0.0 | 1.0 | 0.00 | 0.00 | 0.00 | 88 | 1010.1 |
| 20260505060341 | 50 | 90 | 0.0 | 2.0 | 0.00 | 0.00 | 0.00 | 88 | 1010.1 |
| 20260505055841 | 50 | 90 | 1.0 | 3.0 | 0.00 | 0.00 | 0.00 | 88 | 1010.1 |
| 20260505055339 | 50 | 90 | 0.0 | 3.0 | 0.00 | 0.00 | 0.00 | 88 | 1010.1 |
| 20260505054840 | 50 | 90 | 0.0 | 1.0 | 0.00 | 0.00 | 0.00 | 88 | 1010.1 |
| 20260505054341 | 50 | 90 | 0.0 | 2.0 | 0.00 | 0.00 | 0.00 | 88 | 1010.0 |
| 20260505053839 | 50 | 90 | 1.0 | 2.0 | 0.00 | 0.00 | 0.00 | 87 | 1010.1 |
| 20260505053340 | 50 | 90 | 0.0 | 2.0 | 0.00 | 0.00 | 0.00 | 87 | 1010.1 |
| 20260505052847 | 50 | 36 | 1.0 | 3.0 | 0.00 | 0.00 | 0.00 | 87 | 1010.1 |
| 20260505052838 | 50 | 91 | 1.0 | 3.0 | 0.00 | 0.00 | 0.00 | 87 | 1010.0 |
| 20260505052339 | 50 | 91 | 1.0 | 3.0 | 0.00 | 0.00 | 0.00 | 87 | 1010.0 |
| 20260505051338 | 51 | 40 | 1.0 | 3.0 | 0.00 | 0.00 | 0.00 | 86 | 1010.1 |
| 20260505050836 | 51 | 40 | 1.0 | 3.0 | 0.00 | 0.00 | 0.00 | 87 | 1010.1 |
| 20260505050338 | 51 | 39 | 1.0 | 3.0 | 0.00 | 0.00 | 0.00 | 86 | 1010.2 |
| 20260505041335 | 51 | 44 | 0.0 | 2.0 | 0.00 | 0.00 | 0.00 | 84 | 1010.3 |
| 20260505040836 | 51 | 0 | 0.0 | 1.0 | 0.00 | 0.00 | 0.00 | 83 | 1010.3 |
| 20260505040334 | 51 | 0 | 0.0 | 3.0 | 0.00 | 0.00 | 0.00 | 83 | 1010.3 |
| 20260505035836 | 51 | 44 | 0.0 | 3.0 | 0.00 | 0.00 | 0.00 | 82 | 1010.3 |
| 20260505035336 | 52 | 46 | 1.0 | 3.0 | 0.00 | 0.00 | 0.00 | 82 | 1010.3 |
| 20260505034834 | 52 | 46 | 1.0 | 3.0 | 0.00 | 0.00 | 0.00 | 82 | 1010.2 |
| 20260505034335 | 52 | 76 | 1.0 | 3.0 | 0.00 | 0.00 | 0.00 | 81 | 1010.2 |
| 20260505033836 | 52 | 76 | 0.0 | 3.0 | 0.00 | 0.00 | 0.00 | 81 | 1010.2 |
| 20260505033336 | 52 | 83 | 1.0 | 3.0 | 0.00 | 0.00 | 0.00 | 81 | 1010.2 |
| 20260505032835 | 52 | 83 | 1.0 | 3.0 | 0.00 | 0.00 | 0.00 | 81 | 1010.2 |
| 20260505032334 | 52 | 83 | 1.0 | 3.0 | 0.00 | 0.00 | 0.00 | 80 | 1010.1 |
| 20260505031836 | 52 | 344 | 1.0 | 3.0 | 0.00 | 0.00 | 0.00 | 80 | 1010.1 |
| 20260505031336 | 52 | 344 | 1.0 | 3.0 | 0.00 | 0.00 | 0.00 | 80 | 1010.2 |
| 20260505030841 | 53 | 343 | 1.0 | 3.0 | 0.00 | 0.00 | 0.00 | 79 | 1010.4 |
| 20260505030835 | 53 | 343 | 1.0 | 2.0 | 0.00 | 0.00 | 0.00 | 79 | 1010.3 |
| 20260505025835 | 53 | 340 | 1.0 | 3.0 | 0.00 | 0.00 | 0.00 | 79 | 1010.4 |
| 20260505025336 | 53 | 45 | 1.0 | 3.0 | 0.00 | 0.00 | 0.00 | 78 | 1010.4 |
| 20260505024834 | 53 | 87 | 1.0 | 3.0 | 0.00 | 0.00 | 0.00 | 78 | 1010.4 |
| 20260505024335 | 53 | 85 | 1.0 | 4.0 | 0.00 | 0.00 | 0.00 | 77 | 1010.3 |
| 20260505023834 | 53 | 85 | 1.0 | 4.0 | 0.00 | 0.00 | 0.00 | 77 | 1010.3 |
| 20260505023335 | 54 | 85 | 1.0 | 3.0 | 0.00 | 0.00 | 0.00 | 76 | 1010.3 |
| 20260505022834 | 54 | 85 | 1.0 | 4.0 | 0.00 | 0.00 | 0.00 | 76 | 1010.3 |
| 20260505022334 | 54 | 15 | 1.0 | 4.0 | 0.00 | 0.00 | 0.00 | 75 | 1010.3 |
| 20260505021835 | 54 | 0 | 1.0 | 2.0 | 0.00 | 0.00 | 0.00 | 75 | 1010.4 |
| 20260505021344 | 54 | 0 | 1.0 | 3.0 | 0.00 | 0.00 | 0.00 | 74 | 1010.4 |
| 20260505021334 | 54 | 0 | 1.0 | 3.0 | 0.00 | 0.00 | 0.00 | 75 | 1010.4 |
| 20260505020334 | 55 | 0 | 1.0 | 3.0 | 0.00 | 0.00 | 0.00 | 74 | 1010.3 |
| 20260505015840 | 55 | 0 | 1.0 | 5.0 | 0.00 | 0.00 | 0.00 | 73 | 1010.3 |
| 20260505015834 | 55 | 0 | 1.0 | 4.0 | 0.00 | 0.00 | 0.00 | 74 | 1010.3 |
| 20260505015459 | 55 | 0 | 1.0 | 8.0 | 0.00 | 0.00 | 0.00 | 73 | 1010.4 |
| 20260505014335 | 55 | 0 | 1.0 | 8.0 | 0.00 | 0.00 | 0.00 | 72 | 1010.3 |
| 20260505013840 | 56 | 0 | 1.0 | 8.0 | 0.00 | 0.00 | 0.00 | 72 | 1010.1 |
| 20260505013834 | 55 | 0 | 1.0 | 5.0 | 0.00 | 0.00 | 0.00 | 72 | 1010.1 |
| 20260505012836 | 56 | 0 | 1.0 | 8.0 | 0.00 | 0.00 | 0.00 | 71 | 1010.1 |
| 20260505012335 | 56 | 0 | 1.0 | 5.0 | 0.00 | 0.00 | 0.00 | 71 | 1010.0 |
| 20260505011834 | 56 | 0 | 1.0 | 8.0 | 0.00 | 0.00 | 0.00 | 70 | 1009.8 |
| 20260505011336 | 56 | 0 | 1.0 | 8.0 | 0.00 | 0.00 | 0.00 | 70 | 1009.8 |
| 20260505010834 | 56 | 0 | 1.0 | 5.0 | 0.00 | 0.00 | 0.00 | 69 | 1009.7 |
| 20260505010340 | 56 | 0 | 1.0 | 4.0 | 0.00 | 0.00 | 0.00 | 68 | 1009.6 |
| 20260505010335 | 56 | 0 | 1.0 | 4.0 | 0.00 | 0.00 | 0.00 | 68 | 1009.7 |
| 20260505005451 | 57 | 0 | 1.0 | 5.0 | 0.00 | 0.00 | 0.00 | 66 | 1009.3 |
| 20260505005337 | 56 | 0 | 2.0 | 5.0 | 0.00 | 0.00 | 0.00 | 68 | 1009.5 |
| 20260505005332 | 56 | 0 | 1.0 | 5.0 | 0.00 | 0.00 | 0.00 | 67 | 1009.4 |
| 20260505003837 | 57 | 0 | 1.0 | 4.0 | 0.00 | 0.00 | 0.00 | 65 | 1009.1 |
| 20260505003832 | 57 | 0 | 1.0 | 5.0 | 0.00 | 0.00 | 0.00 | 66 | 1009.2 |
| 20260505002833 | 57 | 0 | 1.0 | 5.0 | 0.00 | 0.00 | 0.00 | 64 | 1008.9 |
| 20260505002340 | 58 | 0 | 2.0 | 5.0 | 0.00 | 0.00 | 0.00 | 62 | 1008.7 |
| 20260505002335 | 57 | 0 | 2.0 | 5.0 | 0.00 | 0.00 | 0.00 | 62 | 1008.8 |
| 20260505001333 | 58 | 0 | 1.0 | 3.0 | 0.00 | 0.00 | 0.00 | 62 | 1008.7 |
| 20260505000831 | 58 | 0 | 1.0 | 5.0 | 0.00 | 0.00 | 0.00 | 61 | 1008.6 |
| 20260505000338 | 58 | 0 | 2.0 | 6.0 | 0.00 | 0.00 | 0.00 | 60 | 1008.5 |
| 20260505000332 | 58 | 0 | 1.0 | 5.0 | 0.00 | 0.00 | 0.00 | 61 | 1008.5 |
| 20260504235335 | 59 | 0 | 2.0 | 5.0 | 0.00 | 0.00 | 0.00 | 59 | 1008.3 |
| 20260504235331 | 59 | 0 | 2.0 | 6.0 | 0.00 | 0.00 | 0.00 | 60 | 1008.4 |
| 20260504234330 | 60 | 0 | 2.0 | 5.0 | 0.00 | 0.00 | 0.00 | 58 | 1008.2 |
| 20260504233830 | 60 | 0 | 2.0 | 5.0 | 0.00 | 0.00 | 0.00 | 57 | 1008.2 |
| 20260504233331 | 60 | 0 | 1.0 | 5.0 | 0.00 | 0.00 | 0.00 | 57 | 1008.2 |
| 20260504232831 | 61 | 0 | 2.0 | 8.0 | 0.00 | 0.00 | 0.00 | 56 | 1008.1 |
| 20260504232331 | 61 | 0 | 2.0 | 9.0 | 0.00 | 0.00 | 0.00 | 55 | 1008.0 |
| 20260504231831 | 61 | 0 | 2.0 | 10.0 | 0.00 | 0.00 | 0.00 | 54 | 1007.7 |
| 20260504231331 | 62 | 0 | 2.0 | 10.0 | 0.00 | 0.00 | 0.00 | 53 | 1007.7 |
| 20260504230832 | 62 | 326 | 2.0 | 9.0 | 0.00 | 0.00 | 0.00 | 52 | 1007.6 |